H1 CPF 2 NER 2022 6 29 9 180 01 glonass128 H2 1106401 9128 37867 2022 6 29 0 0 0 2022 7 2 23 45 0 900 1 1 0 0 0 1 H9 10 0 59759 0.00000 0 316713.617 -11715483.160 22708418.007 10 0 59759 900.00000 0 2896867.292 -10595547.860 23069449.446 10 0 59759 1800.00000 0 5568435.449 -9661365.456 22984730.528 10 0 59759 2700.00000 0 8265333.121 -8934573.544 22455683.888 10 0 59759 3600.00000 0 10918970.569 -8424834.223 21492283.410 10 0 59759 4500.00000 0 13460867.371 -8129530.159 20112884.240 10 0 59759 5400.00000 0 15825277.042 -8033987.357 18343894.741 10 0 59759 6300.00000 0 17951715.211 -8112216.901 16219294.422 10 0 59759 7200.00000 0 19787287.281 -8328146.493 13780004.584 10 0 59759 8100.00000 0 21288718.908 -8637292.099 11073121.330 10 0 59759 9000.00000 0 22424003.894 -8988801.176 8151023.377 10 0 59759 9900.00000 0 23173599.122 -9327782.749 5070370.188 10 0 59759 10800.00000 0 23531114.592 -9597826.552 1891008.534 10 0 59759 11700.00000 0 23503467.384 -9743604.510 -1325191.796 10 0 59759 12600.00000 0 23110490.962 -9713443.289 -4515550.208 10 0 59759 13500.00000 0 22384014.559 -9461756.973 -7617810.892 10 0 59759 14400.00000 0 21366450.255 -8951234.068 -10571376.161 10 0 59759 15300.00000 0 20108946.982 -8154683.100 -13318511.392 10 0 59759 16200.00000 0 18669189.728 -7056455.346 -15805495.811 10 0 59759 17100.00000 0 17108937.902 -5653381.366 -17983694.398 10 0 59759 18000.00000 0 15491408.425 -3955179.067 -19810527.786 10 0 59759 18900.00000 0 13878615.868 -1984313.970 -21250319.474 10 0 59759 19800.00000 0 12328783.742 224683.846 -22275002.547 10 0 59759 20700.00000 0 10893937.783 2626417.911 -22864671.287 10 0 59759 21600.00000 0 9617783.774 5166288.274 -23007966.777 10 0 59759 22500.00000 0 8533959.715 7782548.802 -22702289.308 10 0 59759 23400.00000 0 7664735.609 10408671.611 -21953834.275 10 0 59759 24300.00000 0 7020214.411 12975918.663 -20777452.045 10 0 59759 25200.00000 0 6598065.833 15416012.024 -19196336.029 10 0 59759 26100.00000 0 6383801.727 17663790.492 -17241546.686 10 0 59759 27000.00000 0 6351578.505 19659741.495 -14951382.463 10 0 59759 27900.00000 0 6465489.722 21352303.004 -12370611.593 10 0 59759 28800.00000 0 6681291.380 22699840.338 -9549581.377 10 0 59759 29700.00000 0 6948484.546 23672217.091 -6543223.646 10 0 59759 30600.00000 0 7212665.293 24251896.831 -3409976.894 10 0 59759 31500.00000 0 7418041.381 24434532.127 -210646.914 10 0 59759 32400.00000 0 7510008.737 24229019.201 2992771.550 10 0 59759 33300.00000 0 7437679.021 23657018.657 6138289.294 10 0 59759 34200.00000 0 7156252.336 22751964.806 9165110.520 10 0 59759 35100.00000 0 6629136.168 21557606.984 12014792.082 10 0 59759 36000.00000 0 5829722.658 20126145.020 14632353.030 10 0 59759 36900.00000 0 4742750.812 18516037.250 16967314.690 10 0 59759 37800.00000 0 3365197.478 16789572.134 18974653.153 10 0 59759 38700.00000 0 1706660.205 15010303.684 20615647.942 10 0 59759 39600.00000 0 -210784.163 13240455.846 21858612.353 10 0 59759 40500.00000 0 -2353240.312 11538401.862 22679493.260 10 0 59759 41400.00000 0 -4676148.968 9956321.272 23062330.140 10 0 59759 42300.00000 0 -7125889.510 8538130.011 22999565.238 10 0 59759 43200.00000 0 -9641767.125 7317768.053 22492199.086 10 0 59759 44100.00000 0 -12158305.311 6317914.742 21549787.752 10 0 59759 45000.00000 0 -14607751.732 5549185.003 20190280.670 10 0 59759 45900.00000 0 -16922696.347 5009840.247 18439700.293 10 0 59759 46800.00000 0 -19038695.400 4686027.054 16331667.450 10 0 59759 47700.00000 0 -20896793.540 4552535.145 13906779.057 10 0 59759 48600.00000 0 -22445839.667 4574044.610 11211847.637 10 0 59759 49500.00000 0 -23644499.493 4706811.702 8299014.971 10 0 59759 50400.00000 0 -24462879.389 4900723.691 5224755.234 10 0 59759 51300.00000 0 -24883691.631 5101636.947 2048785.607 10 0 59759 52200.00000 0 -24902909.819 5253899.560 -1167095.076 10 0 59759 53100.00000 0 -24529884.456 5302951.072 -4360216.752 10 0 59759 54000.00000 0 -23786911.631 5197887.564 -7468273.220 10 0 59759 54900.00000 0 -22708271.215 4893881.080 -10430556.235 10 0 59759 55800.00000 0 -21338774.051 4354347.950 -13189162.490 10 0 59759 56700.00000 0 -19731879.174 3552770.953 -15690147.679 10 0 59759 57600.00000 0 -17947460.930 2474094.958 -17884602.839 10 0 59759 58500.00000 0 -16049321.343 1115634.131 -19729629.756 10 0 59759 59400.00000 0 -14102554.196 -512550.048 -21189194.623 10 0 59759 60300.00000 0 -12170873.612 -2387817.659 -22234842.016 10 0 59759 61200.00000 0 -10314021.348 -4475659.908 -22846254.380 10 0 59759 62100.00000 0 -8585363.153 -6730919.873 -23011645.984 10 0 59759 63000.00000 0 -7029775.949 -9099472.750 -22727983.940 10 0 59759 63900.00000 0 -5681914.637 -11520294.229 -22001032.783 10 0 59759 64800.00000 0 -4564930.406 -13927829.260 -20845222.949 10 0 59759 65700.00000 0 -3689692.707 -16254560.889 -19283347.142 10 0 59759 66600.00000 0 -3054545.185 -18433670.660 -17346092.204 10 0 59759 67500.00000 0 -2645602.837 -20401678.763 -15071417.302 10 0 59759 68400.00000 0 -2437574.615 -22100953.490 -12503792.248 10 0 59759 69300.00000 0 -2395073.531 -23481985.532 -9693312.415 10 0 59759 70200.00000 0 -2474355.928 -24505333.258 -6694708.879 10 0 59759 71100.00000 0 -2625413.888 -25143159.334 -3566274.169 10 0 59759 72000.00000 0 -2794330.491 -25380296.628 -368725.409 10 0 59759 72900.00000 0 -2925797.201 -25214801.307 2835972.647 10 0 59759 73800.00000 0 -2965686.613 -24657972.541 5985801.885 10 0 59759 74700.00000 0 -2863572.231 -23733840.395 9019879.577 10 0 59759 75600.00000 0 -2575089.824 -22478145.326 11879619.580 10 0 59759 76500.00000 0 -2064042.067 -20936853.275 14509844.843 10 0 59759 77400.00000 0 -1304159.287 -19164269.074 16859831.369 10 0 59759 78300.00000 0 -280443.570 -17220826.682 18884265.460 10 0 59759 79200.00000 0 1009959.341 -15170647.431 20544097.841 10 0 59759 80100.00000 0 2557396.547 -13078966.346 21807280.171 10 0 59759 81000.00000 0 4339868.616 -11009531.523 22649371.522 10 0 59759 81900.00000 0 6323708.967 -9022082.256 23054004.558 10 0 59759 82800.00000 0 8464755.719 -7170008.408 23013203.192 10 0 59759 83700.00000 0 10709970.001 -5498286.172 22527545.812 10 0 59759 84600.00000 0 12999436.585 -4041774.338 21606170.373 10 0 59759 85500.00000 0 15268666.887 -2823941.051 20266620.046 10 0 59760 0.00000 0 17451111.549 -1856073.855 18534530.741 10 0 59760 900.00000 0 19480781.885 -1137005.942 16443163.250 10 0 59760 1800.00000 0 21294870.002 -653372.387 14032788.921 10 0 59760 2700.00000 0 22836263.282 -380385.338 11349935.083 10 0 59760 3600.00000 0 24055845.312 -283098.591 8446504.661 10 0 59760 4500.00000 0 24914487.221 -318109.320 5378784.303 10 0 59760 5400.00000 0 25384644.051 -435626.395 2206359.063 10 0 59760 6300.00000 0 25451486.824 -581818.417 -1009045.958 10 0 59760 7200.00000 0 25113520.033 -701341.878 -4204774.196 10 0 59760 8100.00000 0 24382656.011 -739941.231 -7318472.079 10 0 59760 9000.00000 0 23283740.723 -647008.757 -10289323.797 10 0 59760 9900.00000 0 21853549.282 -377993.175 -13059260.200 10 0 59760 10800.00000 0 20139292.585 103448.082 -15574116.078 10 0 59760 11700.00000 0 18196697.851 823647.265 -17784710.886 10 0 59760 12600.00000 0 16087744.546 1797554.568 -19647829.642 10 0 59760 13500.00000 0 13878152.235 3027856.896 -21127083.038 10 0 59760 14400.00000 0 11634727.582 4504626.349 -22193628.655 10 0 59760 15300.00000 0 9422683.733 6205514.517 -22826738.339 10 0 59760 16200.00000 0 7303046.092 8096484.949 -23014200.466 10 0 59760 17100.00000 0 5330254.345 10133052.875 -22752549.555 10 0 59760 18000.00000 0 3550061.678 12261979.308 -22047119.508 10 0 59760 18900.00000 0 1997818.763 14423347.384 -20911920.647 10 0 59760 19800.00000 0 697213.087 16552932.602 -19369344.374 10 0 59760 20700.00000 0 -340485.591 18584766.355 -17449702.886 10 0 59760 21600.00000 0 -1116644.891 20453784.461 -15190614.622 10 0 59760 22500.00000 0 -1644948.618 22098449.235 -12636249.107 10 0 59760 23400.00000 0 -1950551.756 23463235.267 -9836447.523 10 0 59760 24300.00000 0 -2068750.682 24500875.483 -6845737.572 10 0 59760 25200.00000 0 -2043227.763 25174274.624 -3722262.891 10 0 59760 26100.00000 0 -1923946.939 25458011.729 -526648.773 10 0 59760 27000.00000 0 -1764790.941 25339370.830 2679173.352 10 0 59760 27900.00000 0 -1621040.945 24818858.967 5833159.852 10 0 59760 28800.00000 0 -1546805.256 23910192.093 8874344.455 10 0 59760 29700.00000 0 -1592505.023 22639751.414 11744001.295 10 0 59760 30600.00000 0 -1802521.974 21045534.328 14386760.333 10 0 59760 31500.00000 0 -2213105.833 19175644.625 16751655.132 10 0 59760 32400.00000 0 -2850628.009 17086384.911 18793084.800 10 0 59760 33300.00000 0 -3730253.713 14840029.983 20471673.565 10 0 59760 34200.00000 0 -4855087.378 12502372.371 21755013.383 10 0 59760 35100.00000 0 -6215827.123 10140139.996 22618277.083 10 0 59760 36000.00000 0 -7790943.400 7818390.728 23044691.637 10 0 59760 36900.00000 0 -9547375.907 5597989.483 23025863.258 10 0 59760 37800.00000 0 -11441721.960 3533270.103 22561948.288 10 0 59760 38700.00000 0 -13421869.722 1669976.966 21661666.091 10 0 59760 39600.00000 0 -15429011.364 43570.428 20342152.495 10 0 59760 40500.00000 0 -17399955.520 -1322034.279 18628654.839 10 0 59760 41400.00000 0 -19269645.602 -2415242.262 16554072.228 10 0 59760 42300.00000 0 -20973781.161 -3237035.222 14158347.366 10 0 59760 43200.00000 0 -22451434.368 -3800696.980 11487719.150 10 0 59760 44100.00000 0 -23647552.689 -4131018.282 8593848.075 10 0 59760 45000.00000 0 -24515242.403 -4263012.756 5532829.480 10 0 59760 45900.00000 0 -25017735.738 -4240196.847 2364112.400 10 0 59760 46800.00000 0 -25129956.786 -4112505.498 -850655.670 10 0 59760 47700.00000 0 -24839617.608 -3933931.542 -4048835.428 10 0 59760 48600.00000 0 -24147795.506 -3759989.400 -7168029.533 10 0 59760 49500.00000 0 -23068964.406 -3645112.013 -10147317.955 10 0 59760 50400.00000 0 -21630476.740 -3640093.465 -12928468.770 10 0 59760 51300.00000 0 -19871516.052 -3789688.433 -15457098.560 10 0 59760 52200.00000 0 -17841563.616 -4130473.135 -17683757.465 10 0 59760 53100.00000 0 -15598443.650 -4689061.277 -19564915.481 10 0 59760 54000.00000 0 -13206030.062 -5480753.195 -21063828.952 10 0 59760 54900.00000 0 -10731712.314 -6508677.454 -22151268.977 10 0 59760 55800.00000 0 -8243728.356 -7763462.610 -22806096.654 10 0 59760 56700.00000 0 -5808477.985 -9223453.766 -23015673.690 10 0 59760 57600.00000 0 -3487930.363 -10855464.859 -22776100.657 10 0 59760 58500.00000 0 -1337235.020 -12616034.378 -22092278.983 10 0 59760 59400.00000 0 597363.776 -14453130.672 -20977796.644 10 0 59760 60300.00000 0 2280222.904 -16308233.880 -19454641.218 10 0 59760 61200.00000 0 3687537.189 -18118705.575 -17552747.532 10 0 59760 62100.00000 0 4808067.892 -19820345.442 -15309390.450 10 0 59760 63000.00000 0 5643335.484 -21350026.767 -12768436.300 10 0 59760 63900.00000 0 6207272.073 -22648299.670 -9979469.184 10 0 59760 64800.00000 0 6525351.788 -23661853.002 -6996810.593 10 0 59760 65700.00000 0 6633239.170 -24345732.347 -3878452.529 10 0 59760 66600.00000 0 6575015.520 -24665222.315 -684925.846 10 0 59760 67500.00000 0 6401060.419 -24597315.910 2521873.796 10 0 59760 68400.00000 0 6165679.361 -24131711.326 5679879.529 10 0 59760 69300.00000 0 5924578.367 -23271296.446 8728043.618 10 0 59760 70200.00000 0 5732292.056 -22032102.632 11607502.365 10 0 59760 71100.00000 0 5639672.843 -20442731.207 14262694.403 10 0 59760 72000.00000 0 5691545.766 -18543277.525 16642412.291 10 0 59760 72900.00000 0 5924626.103 -16383797.702 18700769.121 10 0 59760 73800.00000 0 6365785.787 -14022381.286 20398063.528 10 0 59760 74700.00000 0 7030740.127 -11522908.783 21701528.380 10 0 59760 75600.00000 0 7923209.240 -8952585.188 22585950.586 10 0 59760 76500.00000 0 9034589.304 -6379349.427 23034151.457 10 0 59760 77400.00000 0 10344148.254 -3869264.507 23037319.273 10 0 59760 78300.00000 0 11819739.410 -1483993.864 22595187.859 10 0 59760 79200.00000 0 13419005.667 721533.906 21716057.295 10 0 59760 80100.00000 0 15091026.809 2701176.917 20416655.186 10 0 59760 81000.00000 0 16778344.361 4419264.536 18721839.428 10 0 59760 81900.00000 0 18419282.412 5851845.105 16664145.916 10 0 59760 82800.00000 0 19950470.015 6987444.572 14283187.471 10 0 59760 83700.00000 0 21309461.546 7827303.541 11624912.994 10 0 59760 84600.00000 0 22437346.281 8385081.554 8740738.773 10 0 59760 85500.00000 0 23281237.675 8686039.456 5686566.844 10 0 59761 0.00000 0 23796536.727 8765732.848 2521708.312 10 0 59761 900.00000 0 23948872.561 8668270.618 -692269.904 10 0 59761 1800.00000 0 23715635.253 8444211.471 -3892748.014 10 0 59761 2700.00000 0 23087034.285 8148187.789 -7017287.501 10 0 59761 3600.00000 0 22066634.190 7836358.243 -10004866.693 10 0 59761 4500.00000 0 20671342.361 7563798.859 -12797093.361 10 0 59761 5400.00000 0 18930847.261 7381945.442 -15339368.186 10 0 59761 6300.00000 0 16886529.161 7336198.400 -17581974.097 10 0 59761 7200.00000 0 14589888.625 7463794.258 -19481067.969 10 0 59761 8100.00000 0 12100558.931 7792036.566 -20999553.489 10 0 59761 9000.00000 0 9483986.640 8336963.328 -22107816.783 10 0 59761 9900.00000 0 6808878.958 9102508.831 -22784309.512 10 0 59761 10800.00000 0 4144526.198 10080196.207 -23015967.809 10 0 59761 11700.00000 0 1558112.790 11249373.879 -22798459.132 10 0 59761 12600.00000 0 -887869.720 12577985.378 -22136252.952 10 0 59761 13500.00000 0 -3137999.167 14023839.070 -21042515.052 10 0 59761 14400.00000 0 -5145989.890 15536322.904 -19538828.918 10 0 59761 15300.00000 0 -6876365.233 17058490.418 -17654751.307 10 0 59761 16200.00000 0 -8305667.562 18529428.705 -15427212.381 10 0 59761 17100.00000 0 -9423158.000 19886807.501 -12899773.733 10 0 59761 18000.00000 0 -10230979.758 21069501.268 -10121760.469 10 0 59761 18900.00000 0 -10743781.917 22020173.703 -7147285.619 10 0 59761 19800.00000 0 -10987823.066 22687716.286 -4034187.028 10 0 59761 20700.00000 0 -10999595.848 23029439.114 -842898.350 10 0 59761 21600.00000 0 -10824033.188 23012923.328 2364723.459 10 0 59761 22500.00000 0 -10512373.941 22617458.951 5526591.355 10 0 59761 23400.00000 0 -10119779.173 21835009.642 8581579.261 10 0 59761 24300.00000 0 -9702800.054 20670665.650 11470688.784 10 0 59761 25200.00000 0 -9316803.644 19142567.506 14138170.320 10 0 59761 26100.00000 0 -9013463.949 17281304.616 16532578.412 10 0 59761 27000.00000 0 -8838422.305 15128814.229 18607742.966 10 0 59761 27900.00000 0 -8829213.735 12736826.222 20323639.638 10 0 59761 28800.00000 0 -9013544.732 10164917.307 21647144.569 10 0 59761 29700.00000 0 -9407993.433 7478253.622 22552660.768 10 0 59761 30600.00000 0 -10017186.014 4745112.907 23022605.543 10 0 59761 31500.00000 0 -10833483.871 2034286.315 23047750.441 10 0 59761 32400.00000 0 -11837195.637 -587535.424 22627407.475 10 0 59761 33300.00000 0 -12997306.894 -3058285.915 21769457.597 10 0 59761 34200.00000 0 -14272699.493 -5322854.703 20490219.761 10 0 59761 35100.00000 0 -15613812.275 -7335131.589 18814161.376 10 0 59761 36000.00000 0 -16964676.737 -9059679.697 16773453.496 10 0 59761 36900.00000 0 -18265245.080 -10472967.801 14407376.856 10 0 59761 37800.00000 0 -19453915.357 -11564109.996 11761587.653 10 0 59761 38700.00000 0 -20470149.203 -12335080.737 8887254.845 10 0 59761 39600.00000 0 -21257072.653 -12800394.679 5840083.709 10 0 59761 40500.00000 0 -21763950.100 -12986263.279 2679243.155 10 0 59761 41400.00000 0 -21948425.701 -12929262.284 -533783.152 10 0 59761 42300.00000 0 -21778435.371 -12674565.375 -3736399.372 10 0 59761 43200.00000 0 -21233705.814 -12273818.342 -6866129.649 10 0 59761 44100.00000 0 -20306774.120 -11782744.163 -9861854.415 10 0 59761 45000.00000 0 -19003481.829 -11258581.641 -12665024.696 10 0 59761 45900.00000 0 -17342919.844 -10757467.956 -15220828.577 10 0 59761 46800.00000 0 -15356824.407 -10331878.403 -17479284.707 10 0 59761 47700.00000 0 -13088448.227 -10028234.326 -19396239.304 10 0 59761 48600.00000 0 -10590953.744 -9884783.069 -20934245.288 10 0 59761 49500.00000 0 -7925396.169 -9929841.867 -22063305.043 10 0 59761 50400.00000 0 -5158381.841 -10180481.626 -22761461.327 10 0 59761 51300.00000 0 -2359501.155 -10641707.200 -23015224.526 10 0 59761 52200.00000 0 401355.276 -11306169.060 -22819828.158 10 0 59761 53100.00000 0 3056683.775 -12154418.037 -22179308.330 10 0 59761 54000.00000 0 5543945.218 -13155691.316 -21106406.730 10 0 59761 54900.00000 0 7807925.404 -14269195.018 -19622300.470 10 0 59761 55800.00000 0 9802780.208 -15445827.484 -17756165.650 10 0 59761 56700.00000 0 11493681.697 -16630268.800 -15544584.888 10 0 59761 57600.00000 0 12857998.635 -17763346.868 -13030812.030 10 0 59761 58500.00000 0 13885964.909 -18784578.991 -10263910.025 10 0 59761 59400.00000 0 14580811.259 -19634781.074 -7297780.193 10 0 59761 60300.00000 0 14958358.435 -20258634.308 -4190102.936 10 0 59761 61200.00000 0 15046092.273 -20607101.569 -1001211.456 10 0 59761 62100.00000 0 14881762.831 -20639592.739 2207079.149 10 0 59761 63000.00000 0 14511569.036 -20325789.129 5372664.631 10 0 59761 63900.00000 0 13988007.076 -19647051.967 8434343.290 10 0 59761 64800.00000 0 13367474.086 -18597357.385 11332984.440 10 0 59761 65700.00000 0 12707728.051 -17183720.191 14012652.279 10 0 59761 66600.00000 0 12065310.102 -15426089.745 16421664.972 10 0 59761 67500.00000 0 11493036.230 -13356722.787 18513570.481 10 0 59761 68400.00000 0 11037662.066 -11019059.120 20248022.319 10 0 59761 69300.00000 0 10737816.863 -8466146.040 21591540.329 10 0 59761 70200.00000 0 10622291.615 -5758675.267 22518143.693 10 0 59761 71100.00000 0 10708751.757 -2962711.476 23009845.431 10 0 59761 72000.00000 0 11002927.724 -147203.895 23056999.777 10 0 59761 72900.00000 0 11498317.383 2618618.983 22658496.082 10 0 59761 73800.00000 0 12176413.795 5267866.624 21821795.098 10 0 59761 74700.00000 0 13007450.488 7738509.753 20562805.873 10 0 59761 75600.00000 0 13951635.404 9975707.235 18905603.924 10 0 59761 76500.00000 0 14960824.481 11933841.335 16881993.923 10 0 59761 77400.00000 0 15980567.408 13578177.217 14530922.860 10 0 59761 78300.00000 0 16952442.085 14886077.389 11897752.442 10 0 59761 79200.00000 0 17816581.482 15847719.444 9033402.375 10 0 59761 80100.00000 0 18514287.546 16466285.619 5993379.112 10 0 59761 81000.00000 0 18990621.998 16757614.599 2836707.460 10 0 59761 81900.00000 0 19196863.747 16749328.589 -375215.043 10 0 59761 82800.00000 0 19092727.214 16479471.100 -3579818.598 10 0 59761 83700.00000 0 18648245.202 15994712.208 -6714592.393 10 0 59761 84600.00000 0 17845233.604 15348197.070 -9718321.279 10 0 59761 85500.00000 0 16678272.801 14597129.398 -12532301.742 10 0 59762 0.00000 0 15155161.368 13800193.661 -15101511.079 10 0 59762 900.00000 0 13296819.388 13014926.682 -17375705.983 10 0 59762 1800.00000 0 11136645.667 12295153.297 -19310423.426 10 0 59762 2700.00000 0 8719351.954 11688595.559 -20867867.062 10 0 59762 3600.00000 0 6099324.795 11234759.855 -22017656.869 10 0 59762 4500.00000 0 3338583.344 10963192.594 -22737427.875 10 0 59762 5400.00000 0 504419.733 10892179.321 -23013265.717 10 0 59762 6300.00000 0 -2333178.165 11027942.543 -22839970.744 10 0 59762 7200.00000 0 -5104212.553 11364371.723 -22221146.169 10 0 59762 8100.00000 0 -7741357.015 11883295.719 -21169109.714 10 0 59762 9000.00000 0 -10182520.958 12555284.514 -19704631.834 10 0 59762 9900.00000 0 -12373190.215 13340944.384 -17856507.278 10 0 59762 10800.00000 0 -14268447.121 14192649.721 -15660970.036 10 0 59762 11700.00000 0 -15834587.380 15056636.339 -13160964.747 10 0 59762 12600.00000 0 -17050268.524 15875366.188 -10405290.451 10 0 59762 13500.00000 0 -17907144.925 16590062.331 -7447634.754 10 0 59762 14400.00000 0 -18409966.124 17143306.504 -4345518.407 10 0 59762 15300.00000 0 -18576137.762 17481589.513 -1159171.791 10 0 59762 16200.00000 0 -18434766.845 17557707.392 2049634.358 10 0 59762 17100.00000 0 -18025234.330 17332903.315 5218781.207 10 0 59762 18000.00000 0 -17395357.194 16778666.403 8286994.168 10 0 59762 18900.00000 0 -16599218.714 15878113.284 11195013.071 10 0 59762 19800.00000 0 -15694758.675 14626895.809 13886718.767 10 0 59762 20700.00000 0 -14741224.481 13033598.034 16310195.895 10 0 59762 21600.00000 0 -13796589.134 11119606.514 18418713.245 10 0 59762 22500.00000 0 -12915042.789 8918459.296 20171604.822 10 0 59762 23400.00000 0 -12144661.129 6474700.023 21535036.607 10 0 59762 24300.00000 0 -11525346.205 3842283.329 22482646.112 10 0 59762 25200.00000 0 -11087124.189 1082595.494 22996043.896 10 0 59762 26100.00000 0 -10848869.971 -1737830.198 23065168.322 10 0 59762 27000.00000 0 -10817511.363 -4549811.785 22688487.086 10 0 59762 27900.00000 0 -10987746.373 -7284130.317 21873041.277 10 0 59762 28800.00000 0 -11342286.362 -9874149.522 20634330.064 10 0 59762 29700.00000 0 -11852616.624 -12258337.330 18996036.589 10 0 59762 30600.00000 0 -12480244.684 -14382586.416 16989598.124 10 0 59762 31500.00000 0 -13178386.431 -16202238.173 14653626.393 10 0 59762 32400.00000 0 -13894021.600 -17683726.034 12033186.617 10 0 59762 33300.00000 0 -14570234.162 -18805768.849 9178946.827 10 0 59762 34200.00000 0 -15148740.365 -19560063.091 6146211.874 10 0 59762 35100.00000 0 -15572498.234 -19951443.146 2993859.380 10 0 59762 36000.00000 0 -15788287.850 -19997501.160 -216802.566 10 0 59762 36900.00000 0 -15749151.863 -19727680.687 -3423233.705 10 0 59762 37800.00000 0 -15416590.692 -19181881.171 -6562891.898 10 0 59762 38700.00000 0 -14762416.625 -18408631.547 -9574470.109 10 0 59762 39600.00000 0 -13770185.102 -17462910.266 -12399113.975 10 0 59762 40500.00000 0 -12436139.425 -16403704.829 -14981594.039 10 0 59762 41400.00000 0 -10769625.920 -15291415.580 -17271407.494 10 0 59762 42300.00000 0 -8792959.664 -14185215.556 -19223785.611 10 0 59762 43200.00000 0 -6540744.639 -13140480.253 -20800585.374 10 0 59762 44100.00000 0 -4058675.965 -12206398.004 -21971046.393 10 0 59762 45000.00000 0 -1401874.386 -11423863.772 -22712397.373 10 0 59762 45900.00000 0 1367176.713 -10823746.425 -23010299.939 10 0 59762 46800.00000 0 4181004.466 -10425603.117 -22859121.348 10 0 59762 47700.00000 0 6969729.434 -10236894.723 -22262031.397 10 0 59762 48600.00000 0 9663749.268 -10252734.307 -21230922.770 10 0 59762 49500.00000 0 12196410.323 -10456177.531 -19786157.726 10 0 59762 50400.00000 0 14506555.325 -10819040.521 -17956147.691 10 0 59762 51300.00000 0 16540841.173 -11303208.221 -15776775.666 10 0 59762 52200.00000 0 18255731.196 -11862375.520 -13290674.368 10 0 59762 53100.00000 0 19619080.393 -12444145.346 -10546375.869 10 0 59762 54000.00000 0 20611249.906 -12992393.256 -7597350.710 10 0 59762 54900.00000 0 21225707.008 -13449797.317 -4500956.420 10 0 59762 55800.00000 0 21469088.699 -13760425.759 -1317316.849 10 0 59762 56700.00000 0 21360729.459 -13872273.108 1891845.366 10 0 59762 57600.00000 0 20931675.980 -13739638.339 5064400.438 10 0 59762 58500.00000 0 20223232.666 -13325245.836 8139004.281 10 0 59762 59400.00000 0 19285100.786 -12602021.148 11056270.294 10 0 59762 60300.00000 0 18173190.323 -11554448.251 13759898.605 10 0 59762 61200.00000 0 16947196.443 -10179452.590 16197742.486 10 0 59762 62100.00000 0 15668041.500 -8486773.700 18322793.213 10 0 59762 63000.00000 0 14395288.292 -6498812.081 20094066.462 10 0 59762 63900.00000 0 13184631.027 -4249956.278 21477375.063 10 0 59762 64800.00000 0 12085566.769 -1785416.944 22445975.135 10 0 59762 65700.00000 0 11139342.602 840385.642 22981074.661 10 0 59762 66600.00000 0 10377262.524 3565816.162 23072195.651 10 0 59762 67500.00000 0 9819423.528 6324321.307 22717383.339 10 0 59762 68400.00000 0 9473933.107 9046937.299 21923258.053 10 0 59762 69300.00000 0 9336641.176 11664906.991 20704907.739 10 0 59762 70200.00000 0 9391398.569 14112300.820 19085621.593 10 0 59762 71100.00000 0 9610832.917 16328534.994 17096467.746 10 0 59762 72000.00000 0 9957611.413 18260683.516 14775720.738 10 0 59762 72900.00000 0 10386139.601 19865488.321 12168147.252 10 0 59762 73800.00000 0 10844626.722 21110983.259 9324161.442 10 0 59762 74700.00000 0 11277432.158 21977662.831 6298864.232 10 0 59762 75600.00000 0 11627594.757 22459145.010 3150983.616 10 0 59762 76500.00000 0 11839438.140 22562298.343 -58264.286 10 0 59762 77400.00000 0 11861140.771 22306825.911 -3266371.300 10 0 59762 78300.00000 0 11647160.129 21724322.021 -6410766.477 10 0 59762 79200.00000 0 11160405.710 20856840.225 -9430053.311 10 0 59762 80100.00000 0 10374065.725 19755032.657 -12265228.846 10 0 59762 81000.00000 0 9273006.900 18475939.615 -14860858.710 10 0 59762 81900.00000 0 7854684.927 17080523.773 -17166182.893 10 0 59762 82800.00000 0 6129524.339 15631054.844 -19136128.362 10 0 59762 83700.00000 0 4120749.564 14188457.079 -20732206.856 10 0 59762 84600.00000 0 1863672.768 12809733.602 -21923278.864 10 0 59762 85500.00000 0 -595532.165 11545578.103 -22686167.817 99